User: anonymous   Login
Location: Unspecified
(0.0000°N, 0.0000°E)
Time: 23:29:10
(UTC+00:00)
Language:

WGS 9 (USA 275) - Orbit

View from above orbital plane
View from above orbital plane
View from above satellite
View from above satellite

Ground track
Ground track

The orbit data is extracted from the following two-line orbital elements,

1 42075U 17016A   18042.22399846 0.00000000  00000-0  00000-0 0    04
2 42075   0.0262  11.4616 0002001  29.0095 331.1852  1.00270000    00
Epoch (UTC): 11 February 2018 05:22:33
Eccentricity: 0.0002001
inclination: 0.0262°
perigee height: 35778 km
apogee height: 35795 km
right ascension of ascending node: 11.4616°
argument of perigee: 29.0095°
revolutions per day: 1.00270000
mean anomaly at epoch: 331.1852°
orbit number at epoch: 0

The dashed part of the orbit path shows where the satellite is in the earth's shadow,  

DLR